Wind_Speed
125 125 125 124 123 121 120 119 118 117 115 113 111 109 108 107 107 108 109 108 107 105 103 101 101 101 100 99 98 97 97 97 95 93 91 88 85 83 82 81 80 81
124 125 125 125 125 123 121 119 116 114 111 110 109 108 107 106 106 108 109 110 110 109 107 105 104 104 103 102 101 100 98 97 96 94 92 89 86 85 84 83 83 82
121 121 121 120 120 119 117 114 111 110 108 107 107 106 105 104 104 105 107 108 110 111 111 109 107 106 105 104 102 100 97 96 95 95 93 90 87 86 86 85 84 84
121 120 119 119 117 116 115 113 111 110 108 107 107 107 106 105 103 103 103 105 107 109 110 110 108 106 104 102 101 98 96 95 95 94 93 91 89 89 89 87 85 83
123 122 121 120 119 118 117 116 114 113 112 110 110 109 108 106 104 103 102 103 104 106 108 108 107 106 104 103 101 99 97 96 95 95 93 91 90 89 88 86 84 83
132 129 126 123 121 120 118 118 117 116 115 114 113 111 110 109 108 108 108 107 106 106 107 108 107 107 105 104 102 100 98 96 95 94 92 91 91 92 93 93 92 92
139 138 137 134 132 130 128 127 125 123 121 120 120 118 118 119 120 121 120 118 115 113 112 110 109 108 107 106 104 103 101 100 99 98 97 97 98 100 102 102 101 99
144 142 141 141 141 140 138 137 135 133 131 130 129 129 129 129 130 128 125 123 121 120 119 118 116 114 113 113 111 110 109 107 106 105 104 104 105 105 106 105 103 101
150 149 147 145 144 143 143 141 140 139 137 135 134 133 133 133 132 130 127 123 122 121 122 122 121 120 119 118 117 116 114 113 112 111 109 109 109 109 108 107 106 105
154 153 152 150 148 147 146 144 142 140 139 137 136 135 135 134 133 131 129 126 124 123 123 123 123 123 122 122 121 120 119 118 117 116 114 113 113 112 112 111 110 109
156 155 154 153 152 150 149 148 146 145 143 142 141 141 140 138 136 134 132 130 127 126 125 125 125 125 124 123 122 121 121 120 119 118 117 116 115 115 116 115 114 112
160 160 159 158 157 156 154 153 152 150 149 148 147 145 144 142 141 139 137 135 132 129 128 127 127 127 126 125 123 123 122 121 120 120 119 118 117 117 118 117 116 115
166 165 164 163 162 160 159 157 155 154 152 151 150 147 146 144 143 142 141 140 137 135 133 131 130 130 129 127 125 124 123 122 121 121 120 120 120 120 120 119 117 115
168 167 166 165 163 162 161 159 158 156 154 153 152 150 148 146 144 143 142 142 141 140 138 137 136 135 134 133 131 129 127 126 124 123 121 121 121 122 121 120 119 118
169 168 168 167 166 165 164 163 161 160 158 156 155 153 151 149 148 146 144 143 142 141 140 140 139 139 138 137 135 134 132 130 129 127 125 123 123 123 123 123 122 122
168 168 168 167 167 167 166 165 164 163 161 160 158 156 155 153 152 150 148 146 145 143 142 141 141 141 140 140 139 137 136 134 132 131 129 127 125 125 125 125 124 123
165 165 166 165 165 165 165 164 164 163 162 161 159 158 157 156 154 153 151 150 148 147 145 144 143 143 142 142 141 140 139 137 136 135 133 130 128 127 127 126 126 125
158 159 160 161 161 161 161 161 161 161 160 160 159 158 157 156 155 154 154 153 151 150 149 148 147 146 145 145 144 143 141 140 139 138 136 134 131 130 129 128 127 126
152 153 153 154 155 155 155 156 156 156 156 156 156 155 155 154 154 153 153 153 152 152 151 150 150 149 148 147 146 145 144 142 141 140 138 136 134 132 131 130 129 128
146 147 147 148 149 149 150 150 151 151 151 151 151 151 151 150 150 150 150 150 150 149 149 148 148 148 148 147 147 146 145 144 143 141 139 137 134 133 131 131 130 128
141 141 142 142 143 144 144 145 145 146 146 146 146 146 146 146 146 146 146 146 146 146 146 145 145 145 146 145 145 145 144 144 143 141 139 136 134 132 130 130 129 128
137 137 137 137 138 139 139 139 140 140 141 141 141 141 141 141 142 142 142 143 143 143 143 143 143 143 143 143 143 143 142 142 141 139 137 135 132 130 129 128 128 127
135 134 134 134 134 134 135 135 134 134 134 135 136 136 136 136 136 136 137 138 139 140 140 140 140 141 141 141 141 140 140 140 139 137 135 133 131 129 128 127 126 125
134 133 132 132 132 132 132 132 131 130 130 130 130 130 131 131 131 131 131 132 133 134 135 136 137 137 138 138 138 138 138 138 137 135 133 131 129 128 127 125 125 124
132 132 132 131 130 130 130 130 129 128 127 126 126 126 126 126 126 126 126 126 126 127 129 129 131 132 133 133 134 134 134 134 133 132 130 128 127 126 125 124 123 122
130 130 130 129 129 129 129 129 128 127 126 124 124 124 124 123 122 121 121 121 121 121 122 122 123 125 126 127 128 129 129 129 129 127 126 125 124 123 122 121 120 119
Wind_Direction
250 250 250 251 251 252 252 253 254 255 256 257 257 257 258 259 260 262 262 263 264 264 264 264 265 266 267 268 269 270 271 272 272 273 273 274 276 277 278 278 278 278
249 249 250 250 251 252 252 253 253 254 254 254 255 255 256 257 259 260 261 262 263 264 264 265 265 266 267 268 269 269 270 271 271 271 272 273 274 275 275 276 276 277
248 248 249 249 249 250 250 251 252 253 253 253 253 254 255 256 258 259 260 261 262 263 264 265 265 266 267 267 267 268 268 269 270 270 271 271 272 273 274 274 274 276
247 247 247 247 248 248 249 250 251 252 252 252 253 254 255 256 257 258 259 260 261 262 263 264 265 265 266 266 266 267 267 268 269 269 270 271 272 273 273 273 274 275
247 247 247 247 247 248 249 249 250 252 252 253 253 254 254 255 257 258 259 259 259 260 261 262 263 264 264 265 266 266 266 267 268 269 270 271 272 272 272 272 273 274
249 249 249 248 248 249 250 251 251 252 253 253 253 252 253 254 257 259 260 259 259 259 259 260 261 262 262 263 263 264 265 265 266 267 268 269 270 271 272 273 274 275
249 249 250 250 250 250 251 252 253 253 253 254 254 253 254 256 258 260 261 261 260 260 260 260 260 261 261 262 263 264 264 265 266 266 267 268 270 271 272 274 275 276
250 250 250 250 250 251 251 252 253 254 254 254 255 255 256 257 259 260 261 261 260 260 261 261 262 262 263 264 265 266 266 267 267 268 269 270 271 272 273 274 275 276
250 250 250 250 250 250 251 251 252 253 253 254 254 255 256 257 257 258 259 260 260 260 261 261 262 262 263 264 265 267 267 268 268 269 270 271 272 273 273 274 276 277
250 250 251 251 251 251 251 251 252 252 252 253 254 255 256 256 257 257 258 258 259 259 260 260 261 261 261 262 263 264 266 267 268 269 270 271 271 272 273 273 275 275
250 250 251 251 251 251 251 252 252 252 253 253 254 255 256 257 257 257 257 258 258 258 258 259 260 260 261 261 261 262 263 264 265 267 268 269 270 270 271 271 272 273
250 251 251 252 252 253 253 253 253 253 253 254 254 255 255 256 256 257 257 257 257 257 257 258 259 259 260 260 261 261 262 262 263 264 265 266 267 268 269 269 270 271
251 251 252 252 253 253 254 254 254 254 254 254 254 255 255 255 255 256 256 257 257 257 258 258 258 259 260 260 261 261 262 262 263 263 264 265 265 266 267 268 269 270
251 251 251 252 253 253 254 254 254 254 255 255 255 255 255 255 255 255 255 256 256 257 257 258 258 259 260 260 261 261 262 262 263 263 263 264 265 265 266 267 268 269
250 251 251 252 252 253 253 254 254 255 255 255 255 255 255 255 255 255 255 255 256 256 257 257 258 258 259 260 260 261 261 262 262 263 263 263 264 265 266 266 268 269
250 251 251 252 252 253 253 254 254 254 255 255 255 255 255 255 255 255 255 255 255 256 256 256 257 257 258 259 259 260 261 261 262 263 263 263 264 264 265 266 266 267
250 251 251 252 252 252 253 253 254 254 254 254 255 255 255 255 255 255 255 255 255 255 255 256 256 256 257 258 258 259 260 260 261 262 262 262 263 263 264 264 265 266
250 250 251 251 252 252 252 253 253 254 254 254 254 255 255 255 255 255 255 255 255 255 256 256 256 256 257 257 258 258 259 259 260 261 261 262 262 262 263 263 264 264
250 250 251 251 251 252 252 252 253 253 253 254 254 254 255 255 255 255 255 255 255 256 256 256 256 257 257 257 257 258 258 259 259 260 260 261 261 262 262 262 263 263
250 250 250 251 251 251 251 252 252 252 253 253 253 254 254 254 255 255 255 255 256 256 256 256 256 257 257 257 257 258 258 258 259 259 260 260 260 261 261 261 262 262
250 250 250 250 251 251 251 251 251 252 252 252 252 253 253 253 254 254 254 255 255 255 256 256 256 256 256 257 257 257 258 258 258 259 259 259 259 260 260 260 261 262
249 250 250 250 250 251 251 251 251 251 251 252 252 252 252 252 252 252 253 254 254 255 255 255 255 256 256 256 257 257 257 257 258 258 258 258 259 259 259 259 260 260
250 250 250 250 250 250 250 251 251 251 251 251 251 251 252 252 251 251 251 252 253 253 254 254 255 255 255 256 256 257 257 257 258 258 258 258 258 258 258 258 259 259
250 250 250 250 250 250 250 250 250 250 250 250 251 251 251 251 251 251 251 251 251 252 252 253 253 254 255 255 256 256 256 257 257 258 258 258 258 258 258 258 258 258
250 250 250 250 250 250 250 250 250 250 250 250 250 250 251 251 251 251 251 251 251 251 251 251 252 253 253 254 254 255 256 256 257 257 257 258 258 258 258 258 258 258
249 250 250 250 250 251 251 251 250 250 249 249 249 250 250 250 250 250 250 251 250 250 250 250 251 251 252 252 253 254 254 255 256 256 257 257 257 257 258 258 258 258
Height
10648 10653 10658 10662 10667 10672 10677 10681 10685 10689 10693 10696 10699 10702 10704 10705 10705 10706 10708 10710 10710 10713 10718 10720 10722 10723 10727 10731 10733 10735 10735 10736 10739 10742 10744 10747 10749 10751 10752 10754 10754 10754
10634 10639 10644 10649 10654 10659 10664 10668 10672 10677 10682 10685 10688 10691 10693 10695 10696 10697 10699 10701 10701 10702 10705 10709 10713 10714 10717 10721 10724 10726 10728 10728 10730 10732 10735 10739 10742 10743 10746 10747 10746 10746
10620 10626 10631 10636 10641 10646 10651 10656 10660 10665 10669 10673 10677 10679 10682 10685 10686 10688 10690 10693 10693 10692 10692 10697 10702 10705 10706 10710 10713 10717 10720 10721 10721 10722 10724 10729 10732 10735 10738 10739 10739 10739
10606 10612 10617 10622 10628 10633 10638 10643 10648 10652 10657 10661 10665 10667 10670 10673 10676 10679 10681 10683 10685 10684 10683 10684 10690 10694 10696 10698 10702 10707 10711 10712 10713 10713 10716 10720 10723 10724 10727 10729 10731 10732
10593 10598 10604 10609 10614 10620 10624 10630 10634 10639 10644 10648 10652 10654 10658 10661 10663 10667 10671 10673 10675 10676 10675 10675 10678 10683 10686 10688 10691 10696 10701 10704 10705 10706 10708 10712 10714 10715 10716 10718 10721 10724
10579 10585 10590 10595 10601 10606 10611 10616 10620 10625 10630 10635 10639 10642 10645 10648 10651 10655 10659 10662 10664 10665 10666 10668 10669 10671 10675 10677 10680 10685 10689 10694 10697 10697 10699 10703 10705 10706 10705 10707 10710 10713
10564 10570 10576 10581 10587 10592 10597 10602 10606 10611 10616 10620 10625 10629 10631 10635 10639 10642 10646 10650 10653 10654 10655 10658 10660 10662 10664 10666 10670 10675 10678 10683 10686 10687 10690 10693 10695 10695 10695 10696 10700 10703
10547 10553 10559 10565 10571 10577 10582 10587 10592 10597 10602 10606 10611 10615 10617 10621 10625 10629 10632 10637 10640 10642 10644 10646 10648 10652 10654 10655 10659 10664 10667 10671 10674 10677 10680 10682 10683 10685 10685 10686 10689 10693
10528 10534 10541 10547 10554 10560 10566 10572 10577 10582 10587 10592 10597 10600 10603 10607 10611 10615 10619 10623 10627 10630 10632 10633 10635 10639 10642 10645 10649 10652 10655 10658 10662 10665 10669 10671 10672 10674 10674 10675 10679 10683
10510 10515 10522 10529 10535 10542 10549 10555 10561 10567 10572 10577 10582 10586 10589 10593 10597 10601 10605 10609 10614 10617 10619 10621 10622 10625 10628 10634 10638 10641 10644 10647 10650 10653 10657 10660 10662 10663 10663 10665 10670 10674
10491 10497 10503 10509 10516 10523 10530 10537 10543 10550 10555 10561 10567 10571 10575 10579 10582 10586 10590 10595 10599 10603 10606 10608 10609 10610 10614 10620 10625 10629 10633 10637 10640 10643 10646 10649 10652 10652 10652 10655 10660 10663
10473 10479 10484 10490 10496 10503 10510 10517 10524 10531 10538 10544 10550 10556 10561 10564 10568 10572 10575 10580 10585 10588 10592 10595 10596 10596 10599 10605 10611 10615 10620 10625 10629 10632 10636 10639 10641 10641 10641 10644 10648 10652
10455 10461 10466 10472 10477 10483 10490 10497 10505 10512 10519 10526 10532 10539 10545 10549 10553 10557 10561 10565 10569 10574 10578 10581 10582 10582 10584 10590 10596 10600 10605 10611 10616 10620 10625 10628 10629 10630 10630 10633 10637 10639
10435 10441 10447 10453 10459 10465 10471 10478 10485 10493 10500 10507 10514 10521 10528 10533 10538 10542 10546 10550 10554 10559 10563 10566 10568 10569 10570 10574 10580 10584 10589 10595 10601 10607 10613 10617 10618 10618 10620 10622 10625 10628
10416 10422 10428 10434 10441 10447 10453 10459 10466 10473 10481 10488 10495 10502 10509 10515 10521 10526 10531 10535 10539 10543 10548 10551 10554 10555 10556 10558 10563 10568 10573 10579 10585 10592 10599 10604 10606 10607 10609 10611 10614 10616
10398 10404 10409 10416 10423 10429 10435 10441 10448 10454 10462 10469 10475 10482 10490 10496 10503 10509 10514 10519 10523 10528 10532 10537 10539 10541 10542 10544 10548 10552 10558 10563 10569 10575 10583 10590 10595 10596 10597 10599 10601 10604
10381 10386 10392 10397 10404 10410 10416 10422 10429 10436 10443 10450 10457 10463 10470 10477 10484 10490 10496 10502 10507 10511 10516 10521 10524 10525 10527 10530 10533 10537 10543 10549 10554 10558 10566 10575 10582 10584 10586 10586 10588 10591
10363 10368 10373 10379 10386 10392 10398 10404 10411 10417 10423 10431 10438 10444 10450 10457 10464 10471 10477 10483 10489 10494 10499 10505 10508 10510 10512 10516 10519 10523 10528 10534 10538 10543 10550 10559 10567 10571 10573 10573 10574 10578
10345 10351 10356 10362 10368 10374 10380 10386 10393 10398 10404 10411 10419 10425 10431 10438 10444 10451 10458 10464 10470 10476 10482 10487 10491 10493 10496 10500 10504 10508 10513 10519 10523 10527 10535 10544 10551 10556 10559 10560 10561 10564
10327 10333 10339 10344 10350 10356 10362 10368 10374 10380 10386 10393 10400 10407 10413 10420 10426 10432 10439 10444 10450 10456 10463 10468 10473 10476 10479 10483 10488 10492 10496 10502 10506 10512 10520 10529 10536 10541 10545 10546 10547 10550
10309 10315 10321 10326 10331 10337 10343 10349 10355 10361 10368 10375 10382 10388 10395 10402 10408 10415 10420 10426 10431 10437 10444 10450 10454 10457 10461 10465 10471 10475 10479 10484 10490 10496 10505 10514 10521 10526 10530 10533 10533 10536
10291 10297 10302 10308 10313 10318 10324 10330 10337 10343 10350 10356 10363 10369 10376 10383 10390 10397 10403 10408 10413 10418 10425 10431 10436 10439 10443 10448 10453 10458 10461 10466 10473 10480 10488 10497 10504 10510 10515 10518 10520 10523
10273 10279 10285 10291 10295 10300 10305 10311 10318 10326 10332 10339 10345 10350 10356 10364 10372 10379 10386 10391 10396 10401 10407 10413 10418 10422 10426 10431 10436 10440 10444 10449 10456 10464 10472 10480 10487 10493 10498 10502 10505 10508
10254 10261 10267 10273 10278 10283 10288 10293 10300 10307 10314 10321 10327 10333 10338 10345 10353 10360 10367 10373 10379 10384 10390 10396 10402 10406 10410 10415 10419 10423 10427 10432 10439 10447 10455 10464 10470 10475 10480 10486 10490 10494
10237 10243 10249 10255 10260 10265 10270 10276 10282 10289 10297 10304 10310 10316 10321 10327 10335 10343 10348 10354 10362 10368 10373 10380 10386 10390 10393 10398 10403 10406 10411 10416 10422 10431 10440 10448 10454 10458 10463 10469 10475 10478
10220 10225 10231 10238 10243 10247 10251 10257 10264 10271 10279 10286 10293 10299 10304 10309 10317 10326 10332 10337 10344 10351 10357 10363 10370 10374 10377 10383 10388 10391 10395 10401 10408 10416 10425 10431 10437 10442 10447 10453 10459 10463